Station 42055 (LLNR 1122) - BAY OF CAMPECHE - 214 NM NE of Veracruz, MX Image indicating link to RSS feed of recent meteorological observations for station 42055


Conditions at 42055 as of
(9:50 am CDT)
1450 GMT on 04/15/2024:
     

Click on the graph icon in the table below to see a time series plot of the last five days of that observation.

5-day plot - Wave Height Wave Height (WVHT): 3.9 ft
5-day plot - Dominant Wave Period Dominant Wave Period (DPD): 7 sec
5-day plot - Average Wave Period Average Period (APD): 4.7 sec
5-day plot - Mean Wave Direction Mean Wave Direction (MWD):ENE ( 66 deg true )
5-day plot - Atmospheric Pressure Atmospheric Pressure (PRES):29.91 in
5-day plot - Water Temperature Water Temperature (WTMP): 77.9 °F
Previous observations
TIME
(CDT)
5-day plot - Wind Direction
WDIR
 
5-day plot - Wind Speed
WSPD
kts
5-day plot - Wind Gust
GST
kts
5-day plot - Wave Height
WVHT
ft
5-day plot - Dominant Wave Period
DPD
sec
5-day plot - Average Wave Period
APD
sec
5-day plot - Mean Wave Direction
MWD
 
5-day plot - Atmospheric Pressure
PRES
in
5-day plot - Pressure Tendency
PTDY
in
5-day plot - Air Temperature
ATMP
°F
5-day plot - Water Temperature
WTMP
°F
5-day plot - Dew Point
DEWP
°F
5-day plot - Salinity
SAL
psu
5-day plot - Visibility
VIS
nmi
5-day plot - Tide (above MLLW)
TIDE
ft
2024-04-15 09:40 am-------29.91-- 77.9----
2024-04-15 09:30 am-------29.91-- 77.9----
2024-04-15 09:20 am--- 3.9 74.6ENE29.91-- 77.9----
2024-04-15 09:10 am--- 3.9-4.6ENE29.91-- 77.9----
2024-04-15 09:00 am-------29.91+0.04- 77.9----
2024-04-15 08:50 am--- 3.9 74.5ENE29.91-- 77.9----
2024-04-15 08:40 am--- 3.9-4.5ENE29.91-- 77.9----
2024-04-15 08:30 am-------29.91-- 77.7----
2024-04-15 08:20 am--- 3.6 74.5ENE29.91-- 77.7----
2024-04-15 08:10 am--- 3.6-4.5ENE29.91-- 77.7----
2024-04-15 08:00 am-------29.90+0.03- 77.7----
2024-04-15 07:50 am--- 3.6 64.5ENE29.90-- 77.9----
2024-04-15 07:40 am-------29.90-- 77.7----
2024-04-15 07:30 am-------29.90-- 77.9----
2024-04-15 07:20 am--- 3.6 74.6ENE29.89-- 77.7----
2024-04-15 07:10 am--- 3.6-4.6ENE29.89-- 77.7----
2024-04-15 07:00 am-------29.89+0.01- 77.7----
2024-04-15 06:50 am--- 3.6 64.5ENE29.88-- 77.7----
2024-04-15 06:40 am-------29.88-- 77.9----
2024-04-15 06:30 am-------29.88-- 77.7----
2024-04-15 06:20 am--- 3.9 74.8ENE29.87-- 77.9----
2024-04-15 06:10 am--- 3.9-4.8ENE29.87-- 77.9----
2024-04-15 06:00 am-------29.87-0.02- 77.9----
2024-04-15 05:50 am--- 3.6 74.6ENE29.87-- 77.9----
2024-04-15 05:40 am-------29.87-- 77.9----
2024-04-15 05:30 am-------29.87-- 77.9----
2024-04-15 05:20 am--- 3.9 64.8ENE29.87-- 77.9----
2024-04-15 05:10 am--- 3.9-4.8ENE29.87-- 77.9----
2024-04-15 05:00 am-------29.87-0.04- 77.9----
2024-04-15 04:50 am--- 3.6 74.7ENE29.87-- 77.9----
2024-04-15 04:40 am--- 3.6-4.7ENE29.87-- 77.9----
2024-04-15 04:30 am-------29.87-- 77.9----
2024-04-15 04:20 am--- 3.9 64.8ENE29.87-- 77.9----
2024-04-15 04:10 am--- 3.9-4.8ENE29.87-- 77.9----
2024-04-15 04:00 am-------29.87-0.06- 77.9----
2024-04-15 03:50 am--- 3.9 74.9ENE29.88-- 77.9----
2024-04-15 03:40 am-------29.87-- 77.9----
2024-04-15 03:30 am-------29.88-- 77.9----
2024-04-15 03:20 am--- 3.6 74.8ENE29.88-- 77.9----
2024-04-15 03:10 am--- 3.6-4.8ENE29.88-- 77.9----
2024-04-15 03:00 am-------29.88-0.08- 77.9----
2024-04-15 02:50 am--- 3.9 75.0ENE29.89-- 77.9----
2024-04-15 02:40 am--- 3.9-5.0ENE29.89-- 77.9----
2024-04-15 02:30 am-------29.89-- 77.9----
2024-04-15 02:20 am--- 4.3 75.0ENE29.90-- 77.9----
2024-04-15 02:10 am--- 4.3-5.0ENE29.90-- 77.9----
2024-04-15 02:00 am-------29.91-0.06- 77.9----
2024-04-15 01:50 am--- 3.9 75.0ENE29.91-- 77.9----
2024-04-15 01:40 am-------29.91-- 77.9----
2024-04-15 01:30 am-------29.92-- 77.9----
2024-04-15 01:20 am--- 4.3 75.3ENE29.93-- 77.9----
2024-04-15 01:10 am--- 4.3-5.3ENE29.93-- 77.9----
2024-04-15 01:00 am-------29.93-0.03- 77.9----
2024-04-15 12:50 am--- 4.3 75.1ENE29.94-- 77.9----
2024-04-15 12:40 am--- 4.3-5.1ENE29.95-- 77.9----
2024-04-15 12:30 am-------29.95-- 77.9----
2024-04-15 12:20 am--- 4.3 75.1ENE29.95-- 77.9----
2024-04-15 12:10 am--- 4.3-5.1ENE29.96-- 77.9----
2024-04-15 12:00 am-------29.96+0.01- 77.9----
2024-04-14 11:50 pm--- 4.3 75.1 E29.96-- 77.9----
2024-04-14 11:40 pm--- 4.3-5.1 E29.96-- 77.9----
2024-04-14 11:30 pm-------29.96-- 77.9----
2024-04-14 11:20 pm--- 4.3 74.9ENE29.97-- 77.9----
2024-04-14 11:10 pm--- 4.3-4.9ENE29.96-- 77.9----
2024-04-14 11:00 pm-------29.97+0.02- 77.9----
2024-04-14 10:50 pm--- 4.3 75.1ENE29.96-- 77.9----
2024-04-14 10:40 pm-------29.96-- 77.9----
2024-04-14 10:30 pm-------29.96-- 77.9----
2024-04-14 10:20 pm--- 4.3 75.0ENE29.96-- 77.9----
2024-04-14 10:10 pm-------29.96-- 77.9----
2024-04-14 10:00 pm-------29.96+0.02- 77.9----
2024-04-14 09:50 pm--- 4.9 75.1ENE29.96-- 77.9----
2024-04-14 09:40 pm-------29.96-- 77.9----
2024-04-14 09:30 pm-------29.96-- 77.9----
2024-04-14 09:20 pm--- 4.6 75.1ENE29.96-- 77.9----
2024-04-14 09:10 pm-------29.95-- 77.9----
2024-04-14 09:00 pm-------29.95+0.01- 77.9----
2024-04-14 08:50 pm--- 4.3 74.8 E29.95-- 77.9----
2024-04-14 08:40 pm-------29.95-- 78.1----
2024-04-14 08:30 pm-------29.95-- 77.9----
2024-04-14 08:20 pm--- 4.3 65.0ENE29.95-- 78.1----
2024-04-14 08:10 pm--- 4.3-5.0ENE29.95-- 78.1----
2024-04-14 08:00 pm-------29.95+0.00- 78.1----
2024-04-14 07:50 pm--- 4.3 74.8ENE29.94-- 78.1----
2024-04-14 07:40 pm-------29.94-- 78.1----
2024-04-14 07:30 pm-------29.94-- 78.1----
2024-04-14 07:20 pm--- 4.6 64.9ENE29.94-- 78.1----
2024-04-14 07:10 pm--- 4.6-4.9ENE29.94-- 78.1----
2024-04-14 07:00 pm-------29.94-0.01- 78.1----
2024-04-14 06:50 pm--- 4.6 65.0ENE29.94-- 78.1----
2024-04-14 06:40 pm-------29.94-- 78.1----
2024-04-14 06:20 pm--- 4.6 75.0 E29.94-- 78.1----
2024-04-14 06:10 pm--- 4.6-5.0 E29.93-- 78.1----
2024-04-14 06:00 pm-------29.94-0.04- 78.1----
2024-04-14 05:50 pm--- 4.6 75.1 E29.93-- 78.1----
2024-04-14 05:40 pm--- 4.6-5.1 E29.94-- 78.1----
2024-04-14 05:30 pm-------29.94-- 78.1----
2024-04-14 05:20 pm--- 4.3 74.9ENE29.94-- 78.1----
2024-04-14 05:10 pm--- 4.3-4.9ENE29.94-- 78.1----
2024-04-14 05:00 pm-------29.94-0.05- 78.3----
2024-04-14 04:50 pm--- 4.6 75.0 E29.94-- 78.3----
2024-04-14 04:40 pm-------29.94-- 78.1----
2024-04-14 04:30 pm-------29.95-- 78.1----
2024-04-14 04:20 pm--- 4.6 75.1 E29.95-- 78.1----
2024-04-14 04:10 pm--- 4.6-5.1 E29.95-- 78.1----
2024-04-14 04:00 pm-------29.95-0.07- 78.1----
2024-04-14 03:50 pm--- 4.6 75.0 E29.96-- 78.3----
2024-04-14 03:40 pm--- 4.6-5.0 E29.96-- 78.1----
2024-04-14 03:30 pm-------29.97-- 78.1----
2024-04-14 03:20 pm--- 4.6 75.0 E29.97-- 78.1----
2024-04-14 03:10 pm-------29.97-- 78.1----
2024-04-14 03:00 pm-------29.97-0.07- 78.1----
2024-04-14 02:50 pm--- 4.6 75.1 E29.98-- 78.1----
2024-04-14 02:40 pm--- 4.6-5.1 E29.98-- 78.1----
2024-04-14 02:30 pm-------29.99-- 78.1----
2024-04-14 02:20 pm--- 4.3 65.0ENE29.99-- 78.1----
2024-04-14 02:10 pm--- 4.3-5.0ENE29.99-- 78.1----
2024-04-14 02:00 pm-------30.00-0.05- 78.1----
2024-04-14 01:50 pm--- 4.6 75.2 E30.00-- 78.1----
2024-04-14 01:40 pm--- 4.6-5.2 E30.01-- 78.1----
2024-04-14 01:30 pm-------30.01-- 78.1----
2024-04-14 01:20 pm--- 4.3 65.0ENE30.01-- 78.1----
2024-04-14 01:10 pm--- 4.3-5.0ENE30.01-- 77.9----
2024-04-14 01:00 pm-------30.02-0.04- 77.9----
2024-04-14 12:50 pm--- 4.6 75.1 E30.02-- 77.9----
2024-04-14 12:40 pm-------30.03-- 77.9----
2024-04-14 12:30 pm-------30.03-- 77.9----
2024-04-14 12:20 pm--- 4.3 64.8ENE30.03-- 77.9----
2024-04-14 12:10 pm--- 4.3-4.8ENE30.04-- 77.9----
2024-04-14 12:00 pm-------30.04-0.01- 77.9----
2024-04-14 11:50 am--- 4.6 64.9 E30.04-- 77.9----
2024-04-14 11:40 am-------30.05-- 77.9----
2024-04-14 11:30 am-------30.05-- 77.7----
2024-04-14 11:20 am--- 4.3 64.9 E30.05-- 77.7----
2024-04-14 11:10 am--- 4.3-4.9 E30.05-- 77.7----
2024-04-14 11:00 am-------30.05+0.01- 77.7----
2024-04-14 10:50 am--- 4.3 64.7 E30.05-- 77.7----
2024-04-14 10:40 am--- 4.3-4.7 E30.06-- 77.7----
2024-04-14 10:30 am-------30.06-- 77.7----
2024-04-14 10:20 am--- 4.3 64.6ENE30.06-- 77.7----
2024-04-14 10:10 am--- 4.3-4.6ENE30.06-- 77.7----
2024-04-14 10:00 am-------30.06+0.04- 77.7----
2024-04-14 09:50 am--- 4.6 64.8ENE30.06-- 77.7----

Detailed Wave Summary
for 42055 as of (9:40 am CDT)
1440 GMT on 04/15/2024:

These wave data are displayed in rounded times.

     

Click on the graph icon in the table below to see a time series plot of the last five days of that observation.

5-day plot - Significant Wave Height Significant Wave Height (WVHT): 3.9 ft
5-day plot - Wave Steepness Wave Steepness (STEEPNESS): AVERAGE
5-day plot - Average Wave Period Average Wave Period (APD): 4.7 sec
Previous observations
TIME
(CDT)
5-day plot - Wave Height
WVHT
ft
5-day plot - Swell Height
SwH
ft
5-day plot - Swell Period
SwP
sec
5-day plot - Swell Direction
SwD
 
5-day plot - Wind Wave Height
WWH
ft
5-day plot - Wind Wave Period
WWP
sec
5-day plot - Wind Wave Direction
WWD
 
5-day plot - Wave Steepness
STEEPNESS
 
5-day plot - Average Wave Period
APD
sec
2024-04-15 09:10 am 3.9------ AVERAGE 4.6
2024-04-15 08:40 am 3.9------ AVERAGE 4.5
2024-04-15 08:10 am 3.6------ AVERAGE 4.5
2024-04-15 07:40 am 3.6------ STEEP 4.5
2024-04-15 07:10 am 3.6------ STEEP 4.6
2024-04-15 06:40 am 3.6------ STEEP 4.5
2024-04-15 06:10 am 3.9------ AVERAGE 4.8
2024-04-15 05:40 am 3.6------ AVERAGE 4.6
2024-04-15 05:10 am 3.9------ STEEP 4.8
2024-04-15 04:40 am 3.6------ STEEP 4.7
2024-04-15 04:10 am 3.9------ STEEP 4.8
2024-04-15 03:40 am 3.9------ STEEP 4.9
2024-04-15 03:10 am 3.6------ AVERAGE 4.8
2024-04-15 02:40 am 3.9------ AVERAGE 5.0
2024-04-15 02:10 am 4.3------ STEEP 5.0
2024-04-15 01:40 am 3.9------ STEEP 5.0
2024-04-15 01:10 am 4.3------ STEEP 5.3
2024-04-15 12:40 am 4.3------ STEEP 5.1
2024-04-15 12:10 am 4.3------ STEEP 5.1
2024-04-14 11:40 pm 4.3------ STEEP 5.1
2024-04-14 11:10 pm 4.3------ STEEP 4.9
2024-04-14 10:40 pm 4.3------ STEEP 5.1
2024-04-14 10:10 pm 4.3------ STEEP 5.0
2024-04-14 09:40 pm 4.9------ STEEP 5.1
2024-04-14 09:10 pm 4.6------ STEEP 5.1
2024-04-14 08:40 pm 4.3------ STEEP 4.8
2024-04-14 08:10 pm 4.3------ STEEP 5.0
2024-04-14 07:40 pm 4.3------ STEEP 4.8
2024-04-14 07:10 pm 4.6------ STEEP 4.9
2024-04-14 06:40 pm 4.6------ STEEP 5.0
2024-04-14 06:10 pm 4.6------ STEEP 5.0
2024-04-14 05:40 pm 4.6------ STEEP 5.1
2024-04-14 05:10 pm 4.3------ STEEP 4.9
2024-04-14 04:40 pm 4.6------ STEEP 5.0
2024-04-14 04:10 pm 4.6------ STEEP 5.1
2024-04-14 03:40 pm 4.6------ STEEP 5.0
2024-04-14 03:10 pm 4.6------ STEEP 5.0
2024-04-14 02:40 pm 4.6------ STEEP 5.1
2024-04-14 02:10 pm 4.3------ STEEP 5.0
2024-04-14 01:40 pm 4.6------ STEEP 5.2
2024-04-14 01:10 pm 4.3------ STEEP 5.0
2024-04-14 12:40 pm 4.6------ STEEP 5.1
2024-04-14 12:10 pm 4.3------ STEEP 4.8
2024-04-14 11:40 am 4.6------ STEEP 4.9
2024-04-14 11:10 am 4.3------ STEEP 4.9
2024-04-14 10:40 am 4.3------ STEEP 4.7
2024-04-14 10:10 am 4.3------ STEEP 4.6

Plot of wave energy versus frequency (and period)